Hourly Data Report for September 24, 2017

All times are specified in Local Standard Time (LST). Add 1 hour to adjust for Daylight Saving Time where and when it is observed.

BAS CARAQUET
NEW BRUNSWICK

47°48'08.000" N
64°50'00.000" W
5.00 m
8100467
71598
WXS

Download Data

Hourly Data (September 2017)
Hourly Data Report for September 24, 2017
Temp Definition
°C
Dew Point Temp Definition
°C
Rel Hum Definition
%
Wind Dir Definition
10's deg

Wind Spd Definition
km/h
Visibility Definition
km
Stn Press Definition
kPa
Hmdx Definition


Wind Chill Definition


Weather Definition


TIME
00:00 13.2 9.0 76 9 5   101.75     LegendNANA
01:00 10.0 8.5 91 11 1   101.79     LegendNANA
02:00 9.2 8.3 95   0   101.76     LegendNANA
03:00 10.1 9.4 96   0   101.72     LegendNANA
04:00 10.2 9.7 96 11 2   101.67     LegendNANA
05:00 10.6 10.1 97 9 3   101.65     LegendNANA
06:00 12.9 12.4 97 9 3   101.70     LegendNANA
07:00 13.4 12.3 94 7 6   101.72     LegendNANA
08:00 13.4 12.4 94 7 10   101.76     LegendNANA
09:00 13.1 12.6 97 10 7   101.67     LegendNANA
10:00 13.8 13.2 96 10 8   101.59     LegendNANA
11:00 15.0 14.1 94 13 9   101.47     LegendNANA
12:00 16.3 14.2 87 13 7   101.51     LegendNANA
13:00 16.6 13.1 79 15 11   101.48     LegendNANA
14:00 17.0 13.8 82 15 10   101.43     LegendNANA
15:00 17.1 13.9 82 17 5   101.43     LegendNANA
16:00 16.7 14.1 85 6 6   101.45     LegendNANA
17:00 15.5 14.3 92 1 7   101.54     LegendNANA
18:00 14.7 13.8 94 1 7   101.61     LegendNANA
19:00 14.4 13.7 95 1 7   101.63     LegendNANA
20:00 14.3 13.5 95 1 6   101.68     LegendNANA
21:00 13.1 12.4 95 2 3   101.68     LegendNANA
22:00 11.4 11.0 97 0 1   101.73     LegendNANA
23:00 10.8 10.5 98 0 1   101.76     LegendNANA

Notes on Data Quality.

Legend

  • E = Estimated
  • M = Missing
  • NA = Not Available
  • ‡ = Partner data that is not subject to review by the National Climate Archives
Date modified: